Location: Asheville, NC
(35.6000°N, 82.5500°W)
Time: 22:54:17

RS-15 - Pass Details

Date: 10 March 2018
Orbit: 1888 x 2157 km, 64.8° (Epoch: 20 March)

Event Time Altitude Azimuth Distance (km) Brightness Sun altitude
Exits shadow 03:23:00 21° 318° (NW) 3,804 9.4 -41.1°
Maximum altitude 03:24:55 22° 330° (NNW) 3,744 9.4 -40.7°
Drops below altitude 10° 03:33:29 10° 17° (NNE) 4,549 10.4 -39.2°
Sets 03:38:16 0° 33° (NNE) 5,505 11.1 -38.3°
